Tracking 28915 objects as of 30-May-2024
HD Live streaming from Space Station
objects crossing your sky now

OBJECT AK

Track OBJECT AK now!
10-day predictions
OBJECT AK is classified as:


NORAD ID: 57199
Int'l Code: 2023-091AK
Perigee: 533.2 km
Apogee: 551.5 km
Inclination: 97.6 °
Period: 95.3 minutes
Semi major axis: 6913 km
RCS: Unknown
Launch date: June 27, 2023
Source: (TBD)
Launch site: VOSTOCHNY COSMODROME (VOSTO)

Uplink (MHz):
Downlink (MHz): 401.290
Beacon (MHz):
Mode: 2k4 GMSK_USP
Call sign: SC2212
Status: Unknown

Your satellite tracking list
Your tracking list is empty




NASA's NSSDC Master Catalog

Two Line Element Set (TLE):
1 57199U 23091AK  24151.19544814  .00007587  00000-0  46579-3 0  9996
2 57199  97.6145 204.4654 0013260 166.0824 194.0773 15.10318163 50846
Source of the keplerian elements: AFSPC